Location: Ash Swamp
(41.5170°N, 74.6157°W)
Time: 01:46:26
(UTC+00:00)

CSL-04 DEB - Pass Details

Date: 14 July 2020
Orbit: 545 x 628 km, 98.7° (Epoch: 14 August)

Event Time Altitude Azimuth Distance (km) Brightness Sun altitude
Exits shadow 08:13:50 - 166° (SSE) 2,639 7.5 -13.2°
Reaches altitude 10° 08:15:34 10° 167° (SSE) 1,916 6.8 -12.9°
Maximum altitude 08:19:43 85° 255° (WSW) 588 4.4 -12.4°
Drops below altitude 10° 08:23:47 10° 345° (NNW) 1,880 7.4 -11.8°
Sets 08:25:55 0° 346° (NNW) 2,770 8.3 -11.6°
